Location: *
(50.2903°S, 172.5375°W)
Time: 10:00:33
(UTC+00:00)

Cosmos 1470 - Pass Details

Date: 17 November 2019
Orbit: 520 x 544 km, 82.5° (Epoch: 05 December)

Event Time Altitude Azimuth Distance (km) Brightness Sun altitude
Exits shadow 13:45:23 20° 303° (WNW) 1,303 4.2 -13.2°
Maximum altitude 13:47:31 33° 252° (WSW) 938 3.8 -13.0°
Drops below altitude 10° 13:51:14 10° 186° (S) 1,850 6.2 -12.6°
Sets 13:53:36 0° 176° (S) 2,755 7.4 -12.4°
